Home   Weather   Monaco   Past weeks

Flag for Monaco Past Weather in Monaco, Monaco — Yesterday and Last 2 Weeks

Now
55 °F

Clear.


Feels Like: 53 °F
Forecast: 44 / 56 °F
Wind: 9 mph from Southeast

Location: Nice Airport

Current Time: Feb 25, 2017 at 7:26:20 pm

Latest Report: Feb 25, 2017 at 6:30 pm


Visibility: 10 mi

Pressure: 30.07 "Hg

Humidity: 63%

Dew Point: 43 °F

Location of MonacoLocation

Past Weather in Monaco — Graph

°F

Monaco Temperature Yesterday

Maximum temperature yesterday: 61 °F (at 2:30 pm)
Minimum temperature yesterday: 50 °F (at 2:30 am)
Average temperature yesterday: 54 °F

High & Low Weather Summary for the Past Weeks

 TemperatureHumidityPressure
High61 °F (Feb 13, 7:30 pm)88% (Feb 16, 10:00 pm)30.60 "Hg (Feb 16, 10:00 pm)
Low45 °F (Feb 11, 12:30 am)33% (Feb 25, 10:00 am)29.59 "Hg (Feb 24, 5:00 pm)
Average53 °F70%30.18 "Hg
* Reported Feb 10 6:00 pm — Feb 25 6:30 pm, Monaco, Weather by CustomWeather, © 2017

Note: Actual official high and low records may vary slightly from our data, if they occured in-between our weather recording intervals... More about our weather records

Advertising

Monaco Weather History for the Previous 24 Hours

Scroll right to see more
 ConditionsComfort  
Time TempWeatherWind HumidityBarometerVisibility
6:30 pm
Sat, Feb 25
55 °FClear.9 mph63%30.07 "Hg10 mi
6:00 pm57 °FSunny.12 mph55%30.07 "Hg10 mi
5:30 pm59 °FSunny.7 mph51%30.07 "Hg10 mi
5:00 pm59 °FSunny.6 mph59%30.07 "Hg10 mi
4:30 pm59 °FSunny.7 mph55%30.04 "Hg10 mi
4:00 pm61 °FSunny.3 mph52%30.04 "Hg10 mi
3:30 pm61 °FSunny.5 mph48%30.04 "Hg10 mi
3:00 pm61 °FSunny.7 mph48%30.04 "Hg10 mi
2:30 pm61 °FSunny.6 mph39%30.04 "Hg10 mi
2:00 pm61 °FSunny.6 mph42%30.04 "Hg10 mi
1:30 pm59 °FSunny.7 mph45%30.04 "Hg10 mi
1:00 pm59 °FSunny.8 mph42%30.04 "Hg10 mi
12:30 pm59 °FSunny.8 mph48%30.07 "Hg10 mi
12:00 pm59 °FSunny.8 mph51%30.07 "Hg10 mi
11:30 am59 °FSunny.7 mph51%30.04 "Hg10 mi
11:00 am59 °FPassing clouds.3 mph34%30.04 "HgN/A
10:30 am57 °FPassing clouds.6 mph39%30.04 "HgN/A
10:00 am57 °FSunny.3 mph33%30.01 "Hg10 mi
9:30 am55 °FPassing clouds.5 mph36%30.01 "HgN/A
9:00 am52 °FSunny.6 mph41%30.01 "Hg10 mi
8:30 am50 °FPassing clouds.5 mph43%29.98 "HgN/A
8:00 am46 °FSunny.9 mph53%29.95 "Hg10 mi
7:30 am46 °FSunny.6 mph50%29.95 "Hg10 mi
7:00 am45 °FClear.7 mph61%29.92 "Hg10 mi
6:34 am46 °FClear.6 mph57%29.92 "Hg10 mi
6:00 am46 °FClear.8 mph57%29.89 "Hg10 mi
5:30 am46 °FClear.7 mph62%29.89 "Hg10 mi
5:00 am46 °FClear.8 mph66%29.86 "Hg10 mi
4:30 am48 °FClear.12 mph62%29.86 "Hg10 mi
4:00 am48 °FClear.12 mph66%29.83 "Hg10 mi
3:30 am48 °FClear.10 mph66%29.83 "Hg10 mi
3:00 am48 °FClear.10 mph71%29.83 "Hg10 mi
2:30 am48 °FClear.13 mph76%29.80 "Hg10 mi
2:00 am48 °FClear.10 mph76%29.80 "Hg10 mi
1:30 am48 °FClear.10 mph82%29.77 "Hg10 mi
1:00 am50 °FClear.12 mph76%29.77 "Hg10 mi
12:30 am50 °FPassing clouds.9 mph76%29.74 "HgN/A
12:00 am50 °FPassing clouds.8 mph82%29.74 "HgN/A
11:30 pm
Fri, Feb 24
50 °FPassing clouds.14 mph82%29.74 "HgN/A
11:00 pm50 °FPassing clouds.12 mph82%29.74 "HgN/A
10:30 pm52 °FPassing clouds.7 mph82%29.71 "HgN/A
10:00 pm55 °FPassing clouds.9 mph77%29.71 "HgN/A
9:30 pm57 °FPassing clouds.14 mph77%29.71 "HgN/A
9:00 pm57 °FPassing clouds.16 mph82%29.71 "HgN/A
8:30 pm57 °FPassing clouds.17 mph77%29.68 "HgN/A
8:00 pm57 °FPassing clouds.18 mph82%29.68 "HgN/A
7:30 pm55 °FPassing clouds.21 mph88%29.68 "HgN/A
7:00 pm57 °FPassing clouds.22 mph82%29.65 "HgN/A
Weather by CustomWeather, © 2017

See weather overviewHow to use our weather pages